Terminal Aerodrome Forecast
Issued by NWS Portland, OR

Home | Current Version | Previous Version | Text Only | Print | Product List | Glossary On
Versions: 1 2 3 4 5 6 7 8 9 10 11 12 13 14 15 16 17 18 19 20 21 22 23 24 25 26 27 28 29 30 31 32 33 34 35 36 37 38 39
000
FTUS46 KPQR 300155 AAA
TAFAST
TAF AMD
KAST 300155Z 3002/3024 31014KT P6SM BKN009
     FM300500 31008KT P6SM OVC008
     FM301700 32008KT P6SM SKC
     FM302100 31012G20KT P6SM SKC=

USA.gov is the U.S. government's official web portal to all federal, state and local government web resources and services.